Voltar ao catálogo

STARLINK-34235

AtivoComunicaçõesVLEO
NORAD 64760·PAYLOAD·🇺🇸 United States

Lançado Jul 8, 2025 de Cape Canaveral Space Force Station

Loading…

Próximas Passagens (próximas 24 horas)

TLE

AtualizadoSource: CelesTrak SupGP

Época: Sep 14, 2026, 20:51 UTC

1 64760C 25147F   26257.86923611 -.00005442  00000+0 -16082-3 0  2573
2 64760  53.1584  80.3810 0001111  80.1296  59.6508 15.34385251    12

Acompanhe STARLINK-34235 em tempo real com AllMySat

Download on the App Store